Location: St Paul
(33.4390°N, 83.7350°W)
Time: 14:28:45
(UTC-04:00)

SJ-6B - Pass Details

Date: 06 October 2017
Orbit: 510 x 584 km, 97.7° (Epoch: 18 October)

Event Time Altitude Azimuth Distance (km) Brightness Sun altitude
Exits shadow 20:43:27 34° 157° (SSE) 887 3.6 -19.8°
Maximum altitude 20:45:01 77° 77° (ENE) 550 2.6 -20.1°
Drops below altitude 10° 20:48:50 10° 351° (N) 1,770 5.6 -20.9°
Sets 20:50:55 0° 350° (N) 2,653 6.5 -21.4°
